Weather History for Glens Falls, NY

Change the Weather History Date:

Monday, February 11, 2013

  Actual Average Record
Temperature  
Mean Temperature 21 °F 20 °F  
Max Temperature 38 °F 32 °F 57 °F (1981)
Min Temperature 3 °F 9 °F -21 °F (1979)
Degree Days  
Heating Degree Days 44 45  
Month to date heating degree days 538 503  
Since 1 July heating degree days 4483 4899  
Cooling Degree Days 0 0  
Month to date cooling degree days 0 0  
Year to date cooling degree days 0 0  
Moisture  
Dew Point 22 °F    
Average Humidity 80    
Maximum Humidity 92    
Minimum Humidity 67    
Precipitation  
Precipitation 0.06 in 0.08 in 1.15 in (1955)
Month to date precipitation 0.19 0.84  
Year to date precipitation 1.47 3.70  
Sea Level Pressure  
Sea Level Pressure 29.88 in    
Wind  
Wind Speed 2 mph (SW)    
Max Wind Speed 13 mph    
Max Gust Speed 16 mph    
Visibility 5 miles    
Events Fog , Rain , Snow    
T = Trace of Precipitation, MM = Missing Value Source: NWS Daily Summary

Daily Weather History Graph

Daily Weather History Graph

Search for Another Location

Airport:

Trip Planner

Search our weather history database for the weather conditions in past years. The results will help you decide how hot, cold, wet, or windy it might be!

Date:

Astronomy

Feb. 11, 2013 Rise Set
Actual Time 6:57 AM EST 5:20 PM EST
Civil Twilight 6:28 AM EST 5:49 PM EST
Nautical Twilight 5:54 AM EST 6:23 PM EST
Astronomical Twilight 5:21 AM EST 6:56 PM EST
Moon 7:16 AM EST (2/11) 7:19 PM EST (2/11)
Length of Visible Light 11h 21m
Length of Day
10h 22m
Waxing Crescent, 3% of the Moon is Illuminated
Feb 11
Waxing Crescent
Feb 17
First Quarter
Feb 25
Full
Mar 4
Last Quarter
Mar 11
New

Hourly Weather History & Observations

Time (EST) Temp. Windchill Dew Point Humidity Pressure Visibility Wind Dir Wind Speed Gust Speed Precip Events Conditions
12:53 AM 7.0 °F - 1.0 °F 77% 30.27 in 10.0 mi Calm Calm - N/A   Clear
1:53 AM 10.0 °F - 3.9 °F 76% 30.25 in 10.0 mi Calm Calm - N/A   Clear
2:53 AM 12.9 °F - 7.0 °F 77% 30.22 in 10.0 mi Calm Calm - N/A   Overcast
3:53 AM 14.0 °F - 7.0 °F 74% 30.17 in 10.0 mi Calm Calm - N/A   Scattered Clouds
4:53 AM 15.1 °F - 8.1 °F 74% 30.15 in 10.0 mi Calm Calm - N/A   Overcast
5:53 AM 17.1 °F - 9.0 °F 71% 30.12 in 10.0 mi Calm Calm - N/A   Overcast
6:53 AM 19.0 °F - 10.9 °F 71% 30.08 in 10.0 mi Calm Calm - N/A   Overcast
7:53 AM 19.9 °F - 10.9 °F 68% 30.06 in 8.0 mi Calm Calm - 0.00 in   Overcast
8:03 AM 19.4 °F - 12.2 °F 74% 30.01 in 2.5 mi Calm Calm - 0.00 in Snow Light Snow
8:11 AM 19.4 °F - 14.0 °F 80% 30.01 in 0.8 mi Calm Calm - 0.00 in Snow Light Snow
8:16 AM 19.4 °F - 15.8 °F 86% 30.01 in 0.2 mi Calm Calm - 0.01 in Snow Heavy Snow
8:23 AM 19.4 °F - 15.8 °F 86% 30.00 in 0.2 mi Calm Calm - 0.01 in Fog , Snow Light Snow
8:28 AM 19.4 °F - 15.8 °F 86% 30.00 in 1.0 mi Calm Calm - 0.01 in Snow Light Snow
8:36 AM 19.4 °F - 15.8 °F 86% 30.00 in 0.8 mi Calm Calm - 0.02 in Snow Light Snow
8:45 AM 19.4 °F - 15.8 °F 86% 29.99 in 1.0 mi Calm Calm - 0.03 in Snow Light Snow
8:53 AM 19.9 °F - 17.1 °F 89% 30.02 in 1.0 mi Calm Calm - 0.04 in Snow Light Snow
9:02 AM 19.4 °F - 17.6 °F 93% 29.97 in 1.5 mi Calm Calm - 0.01 in Snow Light Snow
9:08 AM 21.2 °F - 17.6 °F 86% 29.97 in 3.0 mi Calm Calm - 0.01 in Snow Light Snow
9:14 AM 21.2 °F - 17.6 °F 86% 29.96 in 3.0 mi Calm Calm - 0.01 in Snow Light Snow
9:21 AM 21.2 °F - 17.6 °F 86% 29.96 in 2.0 mi Calm Calm - 0.01 in Snow Light Snow
9:49 AM 23.0 °F - 19.4 °F 86% 29.93 in 2.5 mi Calm Calm - 0.01 in Snow Light Snow
9:53 AM 23.0 °F - 19.9 °F 88% 29.96 in 2.5 mi Calm Calm - 0.01 in Snow Light Snow
10:00 AM 24.8 °F - 21.2 °F 86% 29.92 in 3.0 mi Calm Calm - 0.00 in   Overcast
10:39 AM 24.8 °F - 23.0 °F 93% 29.89 in 2.5 mi Calm Calm - 0.01 in   Overcast
10:53 AM 26.1 °F - 23.0 °F 88% 29.92 in 2.0 mi Calm Calm - 0.01 in   Overcast
11:00 AM 26.6 °F - 24.8 °F 93% 29.87 in 1.8 mi Calm Calm - 0.00 in Rain Light Freezing Rain
11:15 AM 28.4 °F - 26.6 °F 93% 29.86 in 1.5 mi Calm Calm - 0.00 in Snow Light Snow
11:24 AM 28.4 °F - 26.6 °F 93% 29.85 in 2.0 mi Calm Calm - 0.00 in   Overcast
11:53 AM 28.9 °F 25.2 °F 27.0 °F 92% 29.87 in 2.5 mi East 3.5 mph - 0.00 in   Overcast
12:18 PM 30.2 °F 26.7 °F 28.4 °F 93% 29.82 in 1.5 mi ESE 3.5 mph - N/A   Overcast
12:53 PM 28.0 °F 24.2 °F 27.0 °F 96% 29.82 in 2.0 mi ENE 3.5 mph - N/A   Overcast
1:53 PM 30.9 °F - 28.9 °F 92% 29.77 in 2.0 mi Calm Calm - 0.00 in   Overcast
2:51 PM 32.0 °F - 30.2 °F 93% 29.71 in 3.0 mi Calm Calm - 0.00 in   Overcast
2:53 PM 33.1 °F - 30.9 °F 92% 29.74 in 3.0 mi Calm Calm - 0.00 in   Overcast
3:53 PM 37.0 °F - 34.0 °F 89% 29.71 in 6.0 mi Calm Calm - N/A   Overcast
4:53 PM 35.1 °F - 32.0 °F 89% 29.69 in 6.0 mi Calm Calm - N/A   Overcast
5:53 PM 34.0 °F - 30.9 °F 89% 29.68 in 7.0 mi Calm Calm - N/A   Overcast
6:15 PM 35.6 °F 31.7 °F 33.8 °F 93% 29.64 in 8.0 mi WSW 4.6 mph - N/A   Overcast
6:53 PM 37.0 °F 33.3 °F 34.0 °F 89% 29.67 in 10.0 mi West 4.6 mph - N/A   Overcast
7:22 PM 37.4 °F 34.9 °F 35.6 °F 93% 29.65 in 10.0 mi WSW 3.5 mph - N/A   Overcast
7:53 PM 37.9 °F 35.5 °F 35.1 °F 89% 29.68 in 9.0 mi SW 3.5 mph - N/A   Overcast
8:47 PM 37.4 °F 33.8 °F 35.6 °F 93% 29.67 in 7.0 mi SSW 4.6 mph - 0.00 in   Overcast
8:53 PM 37.0 °F 31.6 °F 35.1 °F 93% 29.70 in 7.0 mi SSW 6.9 mph - 0.00 in   Overcast
9:53 PM 37.0 °F 31.0 °F 32.0 °F 82% 29.69 in 10.0 mi South 8.1 mph - N/A   Overcast
10:02 PM 37.4 °F 30.3 °F 30.2 °F 75% 29.66 in 10.0 mi SW 10.4 mph - 0.00 in Rain Light Rain
10:23 PM 37.4 °F 32.8 °F 30.2 °F 75% 29.67 in 10.0 mi SW 5.8 mph - 0.00 in   Overcast
10:30 PM 37.4 °F - 30.2 °F 75% 29.66 in 10.0 mi Calm Calm - 0.00 in   Overcast
10:41 PM 37.4 °F 34.9 °F 30.2 °F 75% 29.66 in 10.0 mi SSW 3.5 mph - 0.00 in   Overcast
10:53 PM 37.0 °F 31.6 °F 28.0 °F 70% 29.68 in 10.0 mi WSW 6.9 mph - 0.00 in   Overcast
11:53 PM 36.0 °F 29.6 °F 27.0 °F 70% 29.68 in 10.0 mi WSW 8.1 mph - N/A   Overcast